Location: Cambroso
(45.2833°N, 12.0850°E)
Time: 15:01:12
(UTC+00:00)

CZ-2C R/B - Pass Details

Date: 21 January 2021
Orbit: 785 x 870 km, 98.2° (Epoch: 26 February)

Event Time Altitude Azimuth Distance (km) Brightness Sun altitude
Exits shadow 17:26:40 21° 74° (ENE) 1,840 3.8 -14.5°
Maximum altitude 17:27:47 22° 92° (E) 1,781 3.8 -14.7°
Drops below altitude 10° 17:32:05 10° 142° (SE) 2,506 4.9 -15.4°
Sets 17:34:59 0° 157° (SSE) 3,442 5.8 -15.9°
